This is the latest recevied weather packets stored in our database for station/object KA7EII-13. If no packets are shown the sender has not sent any weather packets the latest 10 day(s).
| Time | Temp. | Humidity | Pressure | Rain* | Wind** | Luminosity | Snow |
|---|---|---|---|---|---|---|---|
| 1777937668 | 22.78° C | 25% | 1094.7 hPa | 0 mm | - | 104 W/m² | - |
| 1777937365 | 22.78° C | 25% | 1094.6 hPa | 0 mm | - | 112 W/m² | - |
| 1777937063 | 23.89° C | 24% | 1094.9 hPa | 0 mm | - | 111 W/m² | - |
| 1777936760 | 23.89° C | 24% | 1094.7 hPa | 0 mm | - | 174 W/m² | - |
| 1777936456 | 24.44° C | 25% | 1094.7 hPa | 0 mm | - | 420 W/m² | - |
| 1777936152 | 23.33° C | 26% | 1095 hPa | 0 mm | - | 414 W/m² | - |
| 1777935850 | 23.89° C | 24% | 1094.9 hPa | 0 mm | - | 134 W/m² | - |
| 1777935548 | 23.89° C | 23% | 1095.2 hPa | 0 mm | - | 427 W/m² | - |
| 1777935244 | 24.44° C | 23% | 1095.2 hPa | 0 mm | - | 400 W/m² | - |
| 1777934942 | 23.89° C | 27% | 1095.1 hPa | 0 mm | - | 427 W/m² | - |
| 1777934638 | 23.89° C | 24% | 1095.3 hPa | 0 mm | - | 416 W/m² | - |
| 1777934335 | 23.89° C | 25% | 1095.2 hPa | 0 mm | - | 434 W/m² | - |
| 1777934030 | 24.44° C | 26% | 1095.1 hPa | 0 mm | - | 470 W/m² | - |
| 1777933727 | 24.44° C | 25% | 1095.2 hPa | 0 mm | - | 498 W/m² | - |
| 1777933424 | 24.44° C | 25% | 1095.5 hPa | 0 mm | - | 497 W/m² | - |
| 1777933123 | 25° C | 24% | 1095.3 hPa | 0 mm | - | 528 W/m² | - |
| 1777932819 | 25° C | 25% | 1095.5 hPa | 0 mm | - | 576 W/m² | - |
| 1777932516 | 24.44° C | 25% | 1095.4 hPa | 0 mm | - | 620 W/m² | - |
| 1777932213 | 24.44° C | 24% | 1095.4 hPa | 0 mm | - | 611 W/m² | - |
| 1777931910 | 23.89° C | 24% | 1095.8 hPa | 0 mm | - | 607 W/m² | - |
| 1777931606 | 24.44° C | 25% | 1095.7 hPa | 0 mm | - | 615 W/m² | - |
| 1777931302 | 25° C | 25% | 1095.7 hPa | 0 mm | - | 603 W/m² | - |
| 1777931000 | 23.89° C | 27% | 1095.9 hPa | 0 mm | - | 620 W/m² | - |
| 1777930696 | 23.33° C | 26% | 1096.1 hPa | 0 mm | - | 637 W/m² | - |
| 1777930392 | 22.78° C | 26% | 1096.1 hPa | 0 mm | - | 212 W/m² | - |
* Rain latest hour (hover to see other rain measurements)
** Current wind speed in m/s (hover to see current wind gust speed)